#timestamp,LO_Frequency,Hit,StdDev 
1566363615.0,286046998.8,N
1566363615.9,286046998.8,N
1566363635.8,286046998.3,N
1566363655.6,286046998.7,N
1566363675.5,286046998.6,N
1566363695.3,286047011.9,Y
1566363715.1,286047001.0,P
1566363735.9,286046998.6,P
1566363755.7,286046998.2,N
1566363775.6,286046998.3,N
1566363795.4,286046998.6,N
1566363815.2,286046998.0,N
1566363835.1,286046995.0,Y
1566363836.0,286046995.0,P
1566363855.8,286046996.6,N
1566363875.6,286046997.0,N
1566363895.5,286046997.3,N
1566363915.3,286046995.7,Y
1566363935.2,286046999.1,P
1566363955.9,286046998.3,N
1566363975.7,286046997.1,P
1566363995.6,286046998.5,N
1566364015.4,286046999.8,N
1566364035.2,286047002.6,N
1566364055.1,286047002.6,N
1566364056.0,286047002.6,N
1566364075.8,286047001.5,N
1566364095.7,286047000.1,N
1566364115.5,286047000.1,N
1566364135.3,286047001.9,N
1566364155.2,286047004.3,N
1566364175.0,286047001.9,N
1566364175.9,286047001.9,N
1566364195.8,286047011.9,Y
1566364215.6,286047001.6,P
1566364235.4,286047000.9,N
1566364255.3,286047002.0,P
1566364275.1,286047002.1,Y
1566364295.8,286046998.6,P
1566364315.7,286046998.3,N
1566364335.5,286046999.4,N
1566364355.4,286046998.6,N
1566364375.2,286047001.0,N
1566364395.0,286047001.1,N
1566364395.9,286047001.1,N
1566364415.8,286047000.2,N
1566364435.6,286047000.8,N
1566364455.4,286046999.3,N
1566364475.3,286046996.5,Y
1566364495.1,286046998.6,P
1566364515.9,286046999.4,N
1566364535.7,286046999.0,N
1566364555.5,286046999.1,N
1566364575.4,286046999.3,N
1566364595.2,286046999.6,N
1566364615.0,286046998.5,Y
1566364615.9,286046998.5,P
1566364635.8,286047000.2,N
1566364655.6,286047002.4,P
1566364675.5,286047002.7,N
1566364695.3,286047001.3,N
1566364715.1,286047002.9,N
1566364735.9,286047002.0,N
1566364755.7,286047004.0,N
1566364775.5,286047004.2,N
1566364795.4,286046999.7,N
1566364815.2,286047002.3,N
1566364835.1,286047000.6,N
1566364836.0,286047000.6,N
1566364855.8,286047002.2,N
1566364875.6,286047001.3,N
1566364895.5,286047001.3,N
1566364915.3,286047004.4,N
1566364935.2,286047003.8,N
1566364955.9,286047003.1,N
1566364975.7,286047003.4,N
1566364995.6,286047003.1,N
1566365015.4,286047001.5,N
1566365035.3,286046999.7,N
1566365055.1,286047002.3,N
1566365056.0,286047002.3,N
1566365075.8,286047001.3,N
1566365095.7,286047001.7,N
1566365115.5,286047001.6,N
1566365135.3,286047001.7,N
1566365155.2,286047003.7,N
1566365175.0,286047003.0,N
1566365175.9,286047003.0,N
1566365195.8,286047006.0,Y
1566365215.6,286047002.5,P
1566365235.4,286047001.9,P
1566365255.3,286047002.6,P
1566365275.1,286047000.6,N
1566365295.8,286046999.8,N
1566365315.7,286047000.2,N
1566365335.5,286047000.5,N
1566365355.4,286047001.0,N
1566365375.2,286046998.6,N
1566365395.0,286047001.2,N
1566365395.9,286047001.2,N
1566365415.8,286046998.6,N
1566365435.6,286047000.8,N
1566365455.4,286046998.1,N
1566365475.3,286047000.8,N
1566365495.1,286047000.1,N
1566365515.8,286047001.5,N
1566365535.7,286047003.5,N
1566365555.5,286047003.8,N
1566365575.4,286047001.5,N
1566365595.2,286047004.1,N
1566365615.0,286047003.9,N
1566365615.9,286047003.9,N
1566365635.8,286047001.8,N
1566365655.6,286047001.5,N
1566365675.4,286047000.5,N
1566365695.3,286046999.7,N
1566365715.1,286047001.5,N
1566365735.9,286047001.8,N
1566365755.7,286047001.8,N
1566365775.5,286047001.7,N
1566365795.4,286047000.4,N
1566365815.2,286046999.7,N
1566365835.0,286047001.7,N
1566365836.0,286047001.7,N
1566365855.8,286047006.0,Y
1566365875.6,286047005.8,P
1566365895.5,286047007.3,P
1566365915.3,286047003.4,N
1566365935.1,286046999.7,N
1566365955.9,286047002.4,N
1566365975.7,286047000.1,N
1566365995.5,286046999.9,N
1566366015.4,286047001.7,N
1566366035.2,286047001.6,N
1566366055.1,286047001.4,N
1566366056.0,286047001.4,N
1566366075.8,286047003.2,N
1566366095.6,286047004.4,N
1566366115.5,286047001.6,N
1566366135.3,286047004.2,N
1566366155.1,286047003.7,N
1566366175.9,286047006.0,N
1566366195.7,286047001.8,N
1566366215.6,286047002.4,N
1566366235.4,286047000.0,N
1566366255.2,286047002.0,N
1566366275.1,286047001.9,N
1566366276.0,286047001.9,N
1566366295.8,286047001.3,N
1566366315.6,286047002.0,N
1566366335.5,286047004.3,N
1566366355.3,286047003.5,N
1566366375.2,286047005.9,Y
1566366395.9,286047004.3,P
1566366415.7,286047004.4,P
1566366435.6,286047003.2,P
1566366455.4,286047003.5,Y
1566366475.3,286047001.0,P
1566366495.1,286047001.2,N
1566366496.0,286047001.2,N
1566366515.8,286046998.7,N
1566366535.7,286046998.7,N
1566366555.5,286046998.3,N
1566366575.3,286046998.2,N
1566366595.2,286046998.3,N
1566366615.0,286046997.7,N
1566366615.9,286046997.7,N
1566366635.8,286046996.8,N
1566366655.6,286046999.1,N
1566366675.4,286046999.1,N
1566366695.3,286046998.9,N
1566366715.1,286046998.1,N
1566366735.8,286046997.7,N
1566366755.7,286046994.9,Y
1566366775.5,286046999.3,P
1566366795.4,286046997.1,P
1566366815.2,286046996.6,P
1566366835.0,286046996.8,N
1566366835.9,286046996.8,N
1566366855.8,286046999.5,N
1566366875.6,286046999.4,N
1566366895.4,286046997.8,N
1566366915.3,286046998.0,N
1566366935.1,286046997.2,N
1566366955.9,286046999.5,N
1566366975.7,286046999.3,N
1566366995.5,286046998.1,N
1566367015.4,286046998.3,N
1566367035.2,286046997.1,N
1566367055.0,286046999.2,N
1566367056.0,286046999.2,N
1566367075.8,286047000.9,N
1566367095.6,286047001.0,N
1566367115.5,286046998.7,N
1566367135.3,286046998.9,N
1566367155.1,286046998.4,N
1566367175.9,286046998.9,N
1566367195.7,286047000.1,N
